Location: Civís
(42.4648°N, 1.4232°E)
Time: 13:39:10
(UTC+00:00)

Meteor 2-20 - Pass Details

Date: 25 November 2025
Orbit: 938 x 958 km, 82.5° (Epoch: 10 December)

Event Time Altitude Azimuth Distance (km) Brightness Sun altitude
Rises 05:25:31 0° 6° (N) 3,640 7.4 -16.7°
Reaches altitude 10° 05:29:05 10° 27° (NNE) 2,686 7.0 -16.0°
Maximum altitude 05:32:53 17° 65° (ENE) 2,229 7.1 -15.4°
Drops below altitude 10° 05:36:38 10° 104° (ESE) 2,668 8.2 -14.7°
Sets 05:40:08 0° 124° (SE) 3,604 9.0 -14.1°
